Regional Weather Roundup
Issued by NWS Sioux Falls, SD

Home | Current Version | Previous Version | Text Only | Print | Product List | Glossary On
Versions: 1 2 3 4 5 6 7 8 9 10 11 12 13 14 15 16 17 18 19 20 21 22 23 24 25 26 27 28 29 30 31 32 33 34 35 36 37 38 39 40 41 42 43 44 45 46 47 48 49 50
648
ASUS43 KFSD 290202
RWRFSD

WEATHER ROUNDUP FOR SE SOUTH DAKOTA/SW MINNESOTA/NW IOWA
NATIONAL WEATHER SERVICE SIOUX FALLS SD
900 PM CDT SAT MAY 28 2016

NOTE: "FAIR" INDICATES FEW OR NO CLOUDS BELOW 12,000 FEET WITH NO
SIGNIFICANT WEATHER AND OR OBSTRUCTIONS TO VISIBILITY.


SDZ038>040-050-052>070-290300-
SOUTHEAST SOUTH DAKOTA

CITY           SKY/WX    TMP DP  RH WIND       PRES   REMARKS
BROOKINGS      CLOUDY    61  58  90 W6        29.87R
CHAMBERLAIN    NOT AVBL
HURON          CLOUDY    62  59  90 CALM      29.88R
MADISON        FAIR      59  59 100 NW6       29.88R
MITCHELL       PTCLDY    63  60  90 W3        29.90R
SIOUX FALLS    CLOUDY    61  58  90 NW6       29.87R
WINNER         FAIR      67  56  67 E3        29.92R
YANKTON        CLOUDY    63  55  77 NW8       29.89R
$$

MNZ071-072-080-081-089-090-097-098-290300-
SOUTHWEST MINNESOTA

CITY           SKY/WX    TMP DP  RH WIND       PRES   REMARKS
FAIRMONT       CLOUDY    63  55  77 NW8       29.82R
JACKSON        LGT RAIN  63  59  88 CALM      29.84R
LUVERNE        PTCLDY    61  55  82 NW5       29.87R
MARSHALL       NOT AVBL
MONTEVIDEO     CLOUDY    63  63 100 CALM      29.85R
PIPESTONE      CLOUDY    63  57  82 CALM      29.87R
REDWOOD FALLS  CLOUDY    64  59  83 NW5       29.82R
TRACY          PTCLDY    62  59  90 NW5       29.85R
WINDOM         CLOUDY    63  57  82 CALM      29.83R
WORTHINGTON    LGT RAIN  62  58  86 N8        29.86R
$$

IAZ001>003-012>014-020>022-031-032-NEZ013-014-SDZ071-290300-
NORTHWEST IOWA

CITY           SKY/WX    TMP DP  RH WIND       PRES   REMARKS
ESTHERVILLE    LGT RAIN  62  61  96 N5        29.83R
SIOUX CITY     CLOUDY    64  58  80 NW13      29.88R
SPENCER        LGT RAIN  61  59  93 NE6       29.83S
STORM LAKE     CLOUDY    63  59  88 N14G22    29.83R
$$

ABBREVIATIONS USED IN REMARKS
   TC - TEMPERATURE IN CELSIUS
  WCI - WIND CHILL INDEX
   HX - HEAT INDEX
  VSB - VISIBILITY





USA.gov is the U.S. government's official web portal to all federal, state and local government web resources and services.